,,,PA_Meas_PMT16A,,PR_Meas_QMR101_102,,RH_Meas_QMH101,,SR_Meas_QMS101,,TA_Meas_QMH101,,GenWind,,GenWind,
date,time,status,PA,status,PR,status,RH,status,SR,status,TA,status,DirAvg,status,SpdAvg,
2009-11-13, 00:00:04,VALID,999.891,VALID,0.5,VALID,93.6154,VALID,0,VALID,23.8378,VALID,156,VALID,0.208594,
2009-11-13, 00:01:04,VALID,999.902,VALID,0,VALID,93.6307,VALID,0,VALID,23.797,VALID,153,VALID,0.396094,
2009-11-13, 00:02:04,VALID,999.927,VALID,0,VALID,93.6688,VALID,0,VALID,23.797,VALID,147,VALID,0.568359,
2009-11-13, 00:03:04,VALID,999.919,VALID,0,VALID,93.6688,VALID,0,VALID,23.797,VALID,141,VALID,0.339844,
2009-11-13, 00:04:04,VALID,999.974,VALID,0,VALID,93.6688,VALID,0,VALID,23.8165,VALID,146,VALID,0.576172,
2009-11-13, 00:05:04,VALID,999.965,VALID,0,VALID,93.6841,VALID,0,VALID,23.797,VALID,149,VALID,0.519141,
2009-11-13, 00:06:04,VALID,999.988,VALID,0.5,VALID,93.7223,VALID,0,VALID,23.8165,VALID,151,VALID,0.801172,
2009-11-13, 00:07:04,VALID,1000.01,VALID,0,VALID,93.707,VALID,0,VALID,23.8165,VALID,149,VALID,0.954687,
2009-11-13, 00:08:04,VALID,999.984,VALID,0,VALID,93.707,VALID,0,VALID,23.8378,VALID,147,VALID,0.574609,
2009-11-13, 00:09:04,VALID,999.978,VALID,0,VALID,93.7146,VALID,0,VALID,23.8165,VALID,143,VALID,0.586328,
2009-11-13, 00:10:04,VALID,1000.02,VALID,0,VALID,93.7451,VALID,0,VALID,23.8573,VALID,136,VALID,0.798437,
2009-11-13, 00:11:04,VALID,1000.02,VALID,0,VALID,93.7375,VALID,0,VALID,23.8573,VALID,138,VALID,0.811719,
2009-11-13, 00:12:04,VALID,1000.05,VALID,0,VALID,93.7375,VALID,0,VALID,23.836,VALID,129,VALID,1.13398,
2009-11-13, 00:13:04,VALID,1000.07,VALID,0.5,VALID,93.7528,VALID,0,VALID,23.8147,VALID,141,VALID,1.21172,
2009-11-13, 00:14:04,VALID,1000.08,VALID,0,VALID,93.7985,VALID,0,VALID,23.8768,VALID,138,VALID,1.51719,
2009-11-13, 00:15:04,VALID,1000.1,VALID,0,VALID,93.768,VALID,0,VALID,23.8555,VALID,129,VALID,1.43047,
2009-11-13, 00:16:04,VALID,1000.09,VALID,0,VALID,93.768,VALID,0,VALID,23.8555,VALID,139,VALID,1.2293,
2009-11-13, 00:17:04,VALID,1000.1,VALID,0,VALID,93.7833,VALID,0,VALID,23.836,VALID,137,VALID,0.692969,
2009-11-13, 00:18:04,VALID,1000.03,VALID,0.5,VALID,93.7833,VALID,0.112286,VALID,23.8555,VALID,130,VALID,0.963281,
2009-11-13, 00:19:04,VALID,1000.02,VALID,0,VALID,93.7833,VALID,0,VALID,23.836,VALID,134,VALID,0.615234,
2009-11-13, 00:20:04,VALID,999.984,VALID,0,VALID,93.7909,VALID,0,VALID,23.836,VALID,148,VALID,1.41367,
2009-11-13, 00:21:04,VALID,999.905,VALID,0.5,VALID,93.7985,VALID,0,VALID,23.836,VALID,173,VALID,1.01328,
2009-11-13, 00:22:04,VALID,999.852,VALID,0,VALID,93.8062,VALID,0.112286,VALID,23.8165,VALID,184,VALID,1.11367,
2009-11-13, 00:23:04,VALID,999.78,VALID,0.5,VALID,93.768,VALID,0.112286,VALID,23.8183,VALID,194,VALID,0.952734,
2009-11-13, 00:24:04,VALID,999.8,VALID,0,VALID,93.7528,VALID,0,VALID,23.7384,VALID,189,VALID,1.07109,
2009-11-13, 00:25:04,VALID,999.798,VALID,0,VALID,93.7528,VALID,0,VALID,23.7189,VALID,164,VALID,0.946094,
2009-11-13, 00:26:04,VALID,999.844,VALID,0,VALID,93.7757,VALID,0,VALID,23.7402,VALID,167,VALID,1.16328,
2009-11-13, 00:27:04,VALID,999.854,VALID,0.5,VALID,93.7833,VALID,0,VALID,23.7207,VALID,177,VALID,0.917578,
2009-11-13, 00:28:04,VALID,999.887,VALID,0,VALID,93.7833,VALID,0,VALID,23.6994,VALID,179,VALID,1.01875,
2009-11-13, 00:29:04,VALID,999.87,VALID,0,VALID,93.8443,VALID,0,VALID,23.7189,VALID,150,VALID,1.20859,
2009-11-13, 00:30:04,VALID,999.857,VALID,0,VALID,93.8291,VALID,0,VALID,23.7402,VALID,149,VALID,1.20664,
2009-11-13, 00:31:04,VALID,999.836,VALID,0,VALID,93.8062,VALID,0,VALID,23.742,VALID,163,VALID,1.22969,
2009-11-13, 00:32:04,VALID,999.788,VALID,0,VALID,93.8062,VALID,0,VALID,23.7207,VALID,174,VALID,0.876562,
2009-11-13, 00:33:04,VALID,999.757,VALID,0,VALID,93.7909,VALID,0,VALID,23.7225,VALID,179,VALID,1.13984,
2009-11-13, 00:34:04,VALID,999.773,VALID,0.5,VALID,93.7909,VALID,0,VALID,23.703,VALID,170,VALID,1.19258,
2009-11-13, 00:35:04,VALID,999.802,VALID,0.5,VALID,93.8138,VALID,0,VALID,23.6835,VALID,168,VALID,1.33398,
2009-11-13, 00:36:04,VALID,999.755,VALID,0,VALID,93.8214,VALID,0,VALID,23.6817,VALID,179,VALID,1.13555,
2009-11-13, 00:37:04,VALID,999.67,VALID,0,VALID,93.8367,VALID,0,VALID,23.7012,VALID,202,VALID,1.15195,
2009-11-13, 00:38:04,VALID,999.599,VALID,0,VALID,93.852,VALID,0,VALID,23.7597,VALID,221,VALID,0.691797,
2009-11-13, 00:39:04,VALID,999.572,VALID,0.5,VALID,93.8596,VALID,0,VALID,23.7811,VALID,227,VALID,0.657812,
2009-11-13, 00:40:04,VALID,999.523,VALID,0,VALID,93.8443,VALID,0,VALID,23.7597,VALID,222,VALID,0.91875,
2009-11-13, 00:41:04,VALID,999.525,VALID,0,VALID,93.8443,VALID,0,VALID,23.7597,VALID,218,VALID,0.622656,
2009-11-13, 00:42:04,VALID,999.523,VALID,0,VALID,93.8443,VALID,0,VALID,23.7811,VALID,201,VALID,0.837891,
2009-11-13, 00:43:04,VALID,999.488,VALID,0,VALID,93.8291,VALID,0,VALID,23.7597,VALID,184,VALID,1.16641,
2009-11-13, 00:44:04,VALID,999.462,VALID,0,VALID,93.852,VALID,0,VALID,23.7597,VALID,175,VALID,1.14648,
2009-11-13, 00:45:04,VALID,999.396,VALID,0,VALID,93.8367,VALID,0,VALID,23.7579,VALID,178,VALID,0.779297,
2009-11-13, 00:46:04,VALID,999.387,VALID,0,VALID,93.8367,VALID,0,VALID,23.7793,VALID,185,VALID,0.614062,
2009-11-13, 00:47:04,VALID,999.409,VALID,0.5,VALID,93.8672,VALID,0,VALID,23.7988,VALID,185,VALID,0.299609,
2009-11-13, 00:48:04,VALID,999.403,VALID,0,VALID,93.852,VALID,0.112286,VALID,23.797,VALID,183,VALID,0.0757812,
2009-11-13, 00:49:04,VALID,999.417,VALID,0,VALID,93.8672,VALID,0,VALID,23.797,VALID,132,VALID,0.606641,
2009-11-13, 00:50:04,VALID,999.413,VALID,0,VALID,93.8672,VALID,0,VALID,23.7775,VALID,137,VALID,0.574609,
2009-11-13, 00:51:04,VALID,999.4,VALID,0,VALID,93.8672,VALID,0,VALID,23.7793,VALID,136,VALID,0.422656,
2009-11-13, 00:52:04,VALID,999.391,VALID,0,VALID,93.8672,VALID,0,VALID,23.7579,VALID,132,VALID,0.495313,
2009-11-13, 00:53:04,VALID,999.371,VALID,0,VALID,93.8748,VALID,0,VALID,23.7579,VALID,111,VALID,0.707812,
2009-11-13, 00:54:04,VALID,999.308,VALID,0,VALID,93.8596,VALID,0,VALID,23.7579,VALID,74,VALID,0.639844,
2009-11-13, 00:55:04,VALID,999.281,VALID,0,VALID,93.8672,VALID,0,VALID,23.7579,VALID,51,VALID,0.766016,
2009-11-13, 00:56:04,VALID,999.237,VALID,0,VALID,93.8825,VALID,0,VALID,23.7775,VALID,51,VALID,0.622656,
2009-11-13, 00:57:04,VALID,999.19,VALID,0,VALID,93.8748,VALID,0,VALID,23.7988,VALID,44,VALID,0.56875,
2009-11-13, 00:58:04,VALID,999.144,VALID,0,VALID,93.8901,VALID,0.112286,VALID,23.7384,VALID,44,VALID,0.489844,
2009-11-13, 00:59:04,VALID,999.143,VALID,0,VALID,93.8825,VALID,0,VALID,23.7579,VALID,44,VALID,0.128125,
2009-11-13, 01:00:04,VALID,999.091,VALID,0,VALID,93.8672,VALID,0,VALID,23.7597,VALID,44,VALID,0.0210938,
2009-11-13, 01:01:04,VALID,999.089,VALID,0,VALID,93.8748,VALID,0,VALID,23.7384,VALID,44,VALID,0,
2009-11-13, 01:02:04,VALID,999.092,VALID,0,VALID,93.8748,VALID,0,VALID,23.7402,VALID,44,VALID,0.0628906,
2009-11-13, 01:03:04,VALID,999.115,VALID,0,VALID,93.8977,VALID,0,VALID,23.7402,VALID,80,VALID,0.625391,
2009-11-13, 01:04:04,VALID,999.116,VALID,0,VALID,93.8825,VALID,0,VALID,23.7597,VALID,76,VALID,1.14023,
2009-11-13, 01:05:04,VALID,999.125,VALID,0,VALID,93.8977,VALID,0,VALID,23.7189,VALID,69,VALID,0.790625,
2009-11-13, 01:06:04,VALID,999.096,VALID,0,VALID,93.8901,VALID,0,VALID,23.7189,VALID,45,VALID,1.16094,
2009-11-13, 01:07:04,VALID,999.064,VALID,0.5,VALID,93.9206,VALID,0,VALID,23.7384,VALID,49,VALID,1.32852,
2009-11-13, 01:08:04,VALID,999.046,VALID,0,VALID,93.9359,VALID,0,VALID,23.7988,VALID,38,VALID,1.25352,
2009-11-13, 01:09:04,VALID,999.002,VALID,0,VALID,93.9283,VALID,0,VALID,23.8183,VALID,39,VALID,1.37383,
2009-11-13, 01:10:04,VALID,998.982,VALID,0,VALID,93.913,VALID,0,VALID,23.8378,VALID,25,VALID,1.11836,
2009-11-13, 01:11:04,VALID,998.933,VALID,0,VALID,93.9054,VALID,0,VALID,23.8378,VALID,11,VALID,1.04766,
2009-11-13, 01:12:04,VALID,998.884,VALID,0,VALID,93.9054,VALID,0,VALID,23.8378,VALID,11,VALID,1.08711,
2009-11-13, 01:13:04,VALID,998.854,VALID,0,VALID,93.9054,VALID,0,VALID,23.8183,VALID,6,VALID,1.33086,
2009-11-13, 01:14:04,VALID,998.816,VALID,0,VALID,93.8901,VALID,0,VALID,23.8183,VALID,8,VALID,1.41133,
2009-11-13, 01:15:04,VALID,998.776,VALID,0,VALID,93.8748,VALID,0,VALID,23.8183,VALID,3,VALID,1.12383,
2009-11-13, 01:16:04,VALID,998.774,VALID,0,VALID,93.8748,VALID,0,VALID,23.8378,VALID,357,VALID,0.747656,
2009-11-13, 01:17:04,VALID,998.743,VALID,0,VALID,93.8825,VALID,0,VALID,23.8165,VALID,357,VALID,0.613281,
2009-11-13, 01:18:04,VALID,998.694,VALID,0,VALID,93.8977,VALID,0,VALID,23.8378,VALID,357,VALID,0.351953,
2009-11-13, 01:19:04,VALID,998.639,VALID,0,VALID,93.8748,VALID,0,VALID,23.8183,VALID,357,VALID,0.356641,
2009-11-13, 01:20:04,VALID,998.602,VALID,0.5,VALID,93.8748,VALID,0,VALID,23.8183,VALID,332,VALID,0.536328,
2009-11-13, 01:21:04,VALID,998.552,VALID,0,VALID,93.8748,VALID,0,VALID,23.8183,VALID,311,VALID,0.733594,
2009-11-13, 01:22:04,VALID,998.537,VALID,0,VALID,93.8825,VALID,0,VALID,23.797,VALID,311,VALID,0.433984,
2009-11-13, 01:23:04,VALID,998.533,VALID,0,VALID,93.8596,VALID,0.112286,VALID,23.7988,VALID,311,VALID,0.265625,
2009-11-13, 01:24:04,VALID,998.507,VALID,0,VALID,93.8596,VALID,0,VALID,23.7988,VALID,311,VALID,0,
2009-11-13, 01:25:04,VALID,998.538,VALID,0,VALID,93.8748,VALID,0,VALID,23.7775,VALID,311,VALID,0.0457031,
2009-11-13, 01:26:04,VALID,998.525,VALID,0,VALID,93.8748,VALID,0,VALID,23.7988,VALID,252,VALID,0.403516,
2009-11-13, 01:27:04,VALID,998.531,VALID,0,VALID,93.8825,VALID,0,VALID,23.7988,VALID,264,VALID,0.373047,
2009-11-13, 01:28:04,VALID,998.519,VALID,0,VALID,93.8596,VALID,0,VALID,23.7579,VALID,264,VALID,0.330859,
2009-11-13, 01:29:04,VALID,998.52,VALID,0,VALID,93.8748,VALID,0,VALID,23.7579,VALID,264,VALID,0.458984,
2009-11-13, 01:30:04,VALID,998.505,VALID,0,VALID,93.8672,VALID,0,VALID,23.7793,VALID,265,VALID,0.375391,
2009-11-13, 01:31:04,VALID,998.478,VALID,0,VALID,93.8901,VALID,0,VALID,23.7579,VALID,310,VALID,0.984375,
2009-11-13, 01:32:04,VALID,998.443,VALID,0,VALID,93.8672,VALID,0,VALID,23.7597,VALID,309,VALID,0.485156,
2009-11-13, 01:33:04,VALID,998.423,VALID,0,VALID,93.8901,VALID,0,VALID,23.7793,VALID,312,VALID,0.471484,
2009-11-13, 01:34:04,VALID,998.414,VALID,0,VALID,93.8977,VALID,0,VALID,23.7988,VALID,323,VALID,0.723437,
2009-11-13, 01:35:04,VALID,998.374,VALID,0,VALID,93.8825,VALID,0,VALID,23.7793,VALID,331,VALID,0.611328,
2009-11-13, 01:36:04,VALID,998.38,VALID,0,VALID,93.8825,VALID,0,VALID,23.7793,VALID,331,VALID,0.627344,
2009-11-13, 01:37:04,VALID,998.365,VALID,0,VALID,93.8748,VALID,0,VALID,23.7793,VALID,331,VALID,0.516797,
2009-11-13, 01:38:04,VALID,998.335,VALID,0,VALID,93.8825,VALID,0,VALID,23.7579,VALID,331,VALID,0.321875,
2009-11-13, 01:39:04,VALID,998.352,VALID,0,VALID,93.8825,VALID,0,VALID,23.7793,VALID,331,VALID,0.254297,
2009-11-13, 01:40:04,VALID,998.327,VALID,0,VALID,93.8672,VALID,0,VALID,23.7597,VALID,331,VALID,0.276953,
2009-11-13, 01:41:04,VALID,998.297,VALID,0,VALID,93.852,VALID,0,VALID,23.7189,VALID,331,VALID,0.0347656,
2009-11-13, 01:42:04,VALID,998.239,VALID,0,VALID,93.8596,VALID,0,VALID,23.7207,VALID,331,VALID,0,
2009-11-13, 01:43:04,VALID,998.189,VALID,0,VALID,93.8596,VALID,0,VALID,23.6799,VALID,331,VALID,0,
2009-11-13, 01:44:04,VALID,998.215,VALID,0,VALID,93.8672,VALID,0,VALID,23.7012,VALID,331,VALID,0,
2009-11-13, 01:45:04,VALID,998.18,VALID,0,VALID,93.8825,VALID,0,VALID,23.6604,VALID,331,VALID,0,
2009-11-13, 01:46:04,VALID,998.189,VALID,0,VALID,93.8748,VALID,0,VALID,23.6604,VALID,331,VALID,0,
2009-11-13, 01:47:04,VALID,998.209,VALID,0,VALID,93.8901,VALID,0,VALID,23.6604,VALID,331,VALID,0,
2009-11-13, 01:48:04,VALID,998.251,VALID,0,VALID,93.9054,VALID,0,VALID,23.6622,VALID,331,VALID,0,
2009-11-13, 01:49:04,VALID,998.239,VALID,0,VALID,93.8977,VALID,0,VALID,23.6409,VALID,37,VALID,0.829297,
2009-11-13, 01:50:04,VALID,998.24,VALID,0,VALID,93.8825,VALID,0,VALID,23.6427,VALID,37,VALID,0.867188,
2009-11-13, 01:51:04,VALID,998.214,VALID,0,VALID,93.9283,VALID,0,VALID,23.6409,VALID,38,VALID,0.819141,
2009-11-13, 01:52:04,VALID,998.232,VALID,0,VALID,93.8977,VALID,0,VALID,23.6622,VALID,38,VALID,0.746094,
2009-11-13, 01:53:04,VALID,998.224,VALID,0,VALID,93.9054,VALID,0,VALID,23.6604,VALID,33,VALID,0.891797,
2009-11-13, 01:54:04,VALID,998.246,VALID,0,VALID,93.913,VALID,0,VALID,23.6622,VALID,33,VALID,0.844141,
2009-11-13, 01:55:04,VALID,998.252,VALID,0,VALID,93.9206,VALID,0,VALID,23.6622,VALID,33,VALID,1.17656,
2009-11-13, 01:56:04,VALID,998.254,VALID,0,VALID,93.8901,VALID,0,VALID,23.6622,VALID,31,VALID,1.34219,
2009-11-13, 01:57:04,VALID,998.262,VALID,0,VALID,93.9435,VALID,0,VALID,23.6817,VALID,34,VALID,1.6543,
2009-11-13, 01:58:04,VALID,998.311,VALID,0,VALID,93.9664,VALID,0,VALID,23.7012,VALID,37,VALID,1.43711,
2009-11-13, 01:59:04,VALID,998.268,VALID,0,VALID,93.9435,VALID,0,VALID,23.7207,VALID,35,VALID,1.4082,
2009-11-13, 02:00:04,VALID,998.257,VALID,0,VALID,93.9435,VALID,0,VALID,23.7189,VALID,35,VALID,1.67305,
2009-11-13, 02:01:04,VALID,998.27,VALID,0,VALID,93.9283,VALID,0,VALID,23.7597,VALID,34,VALID,1.86523,
2009-11-13, 02:02:04,VALID,998.275,VALID,0,VALID,93.9283,VALID,0,VALID,23.7402,VALID,27,VALID,1.53906,
2009-11-13, 02:03:04,VALID,998.266,VALID,0,VALID,93.9511,VALID,0,VALID,23.7402,VALID,25,VALID,1.74688,
2009-11-13, 02:04:04,VALID,998.248,VALID,0,VALID,93.9359,VALID,0,VALID,23.7597,VALID,24,VALID,1.32227,
2009-11-13, 02:05:04,VALID,998.233,VALID,0,VALID,93.9206,VALID,0,VALID,23.7597,VALID,12,VALID,1.43203,
2009-11-13, 02:06:04,VALID,998.231,VALID,0,VALID,93.9511,VALID,0,VALID,23.7811,VALID,16,VALID,1.31641,
2009-11-13, 02:07:04,VALID,998.245,VALID,0,VALID,93.913,VALID,0,VALID,23.7579,VALID,19,VALID,1.06406,
2009-11-13, 02:08:04,VALID,998.253,VALID,0,VALID,93.9283,VALID,0,VALID,23.7793,VALID,12,VALID,1.41016,
2009-11-13, 02:09:04,VALID,998.247,VALID,0,VALID,93.9359,VALID,0,VALID,23.7597,VALID,11,VALID,1.39922,
2009-11-13, 02:10:04,VALID,998.204,VALID,0,VALID,93.9283,VALID,0,VALID,23.7597,VALID,13,VALID,1.31797,
2009-11-13, 02:11:04,VALID,998.145,VALID,0,VALID,93.9054,VALID,0,VALID,23.7597,VALID,13,VALID,1.38437,
2009-11-13, 02:12:04,VALID,998.112,VALID,0,VALID,93.9054,VALID,0,VALID,23.7597,VALID,4,VALID,1.30039,
2009-11-13, 02:13:04,VALID,998.071,VALID,0,VALID,93.8901,VALID,0,VALID,23.7189,VALID,355,VALID,1.01406,
2009-11-13, 02:14:04,VALID,998.077,VALID,0,VALID,93.8748,VALID,0,VALID,23.7207,VALID,351,VALID,0.658594,
2009-11-13, 02:15:04,VALID,998.086,VALID,0,VALID,93.8672,VALID,0,VALID,23.7012,VALID,351,VALID,0.555078,
2009-11-13, 02:16:04,VALID,998.064,VALID,0,VALID,93.8596,VALID,0,VALID,23.6799,VALID,351,VALID,0.623047,
2009-11-13, 02:17:04,VALID,998.068,VALID,0,VALID,93.8672,VALID,0,VALID,23.6604,VALID,351,VALID,0.963281,
2009-11-13, 02:18:04,VALID,998.059,VALID,0,VALID,93.8672,VALID,0,VALID,23.6622,VALID,353,VALID,0.862891,
2009-11-13, 02:19:05,VALID,998.052,VALID,0,VALID,93.8443,VALID,0,VALID,23.6622,VALID,353,VALID,0.748047,
2009-11-13, 02:20:05,VALID,998.008,VALID,0,VALID,93.8443,VALID,0,VALID,23.6622,VALID,352,VALID,0.592969,
2009-11-13, 02:21:05,VALID,998.011,VALID,0,VALID,93.8672,VALID,0,VALID,23.6214,VALID,344,VALID,0.478906,
2009-11-13, 02:22:05,VALID,997.978,VALID,0,VALID,93.8291,VALID,0,VALID,23.6214,VALID,344,VALID,0.239453,
2009-11-13, 02:23:05,VALID,997.96,VALID,0,VALID,93.8367,VALID,0,VALID,23.6409,VALID,344,VALID,0.416406,
2009-11-13, 02:24:05,VALID,997.943,VALID,0,VALID,93.8672,VALID,0,VALID,23.6427,VALID,339,VALID,0.532812,
2009-11-13, 02:25:05,VALID,997.939,VALID,0,VALID,93.8291,VALID,0,VALID,23.6427,VALID,299,VALID,0.541406,
2009-11-13, 02:26:05,VALID,997.948,VALID,0,VALID,93.8443,VALID,0,VALID,23.6409,VALID,297,VALID,0.401953,
2009-11-13, 02:27:05,VALID,997.942,VALID,0,VALID,93.8443,VALID,0,VALID,23.6409,VALID,295,VALID,0.0324219,
2009-11-13, 02:28:05,VALID,997.896,VALID,0,VALID,93.8367,VALID,0,VALID,23.6214,VALID,295,VALID,0.455469,
2009-11-13, 02:29:05,VALID,997.914,VALID,0,VALID,93.8367,VALID,0,VALID,23.6427,VALID,294,VALID,0.35,
2009-11-13, 02:30:05,VALID,997.936,VALID,0,VALID,93.8367,VALID,0,VALID,23.6409,VALID,294,VALID,0,
2009-11-13, 02:31:05,VALID,997.875,VALID,0,VALID,93.852,VALID,0,VALID,23.6427,VALID,294,VALID,0.311719,
2009-11-13, 02:32:05,VALID,997.906,VALID,0,VALID,93.8443,VALID,0,VALID,23.6427,VALID,294,VALID,0.175781,
2009-11-13, 02:33:05,VALID,997.93,VALID,0,VALID,93.8596,VALID,0,VALID,23.6019,VALID,167,VALID,0.668359,
2009-11-13, 02:34:05,VALID,997.88,VALID,0,VALID,93.852,VALID,0,VALID,23.6019,VALID,162,VALID,0.712891,
2009-11-13, 02:35:05,VALID,997.83,VALID,0,VALID,93.852,VALID,0,VALID,23.6019,VALID,244,VALID,1.08789,
2009-11-13, 02:36:05,VALID,997.77,VALID,0,VALID,93.8977,VALID,0,VALID,23.6604,VALID,272,VALID,1.25078,
2009-11-13, 02:37:05,VALID,997.874,VALID,0,VALID,93.8825,VALID,0,VALID,23.6604,VALID,325,VALID,0.727734,
2009-11-13, 02:38:05,VALID,997.915,VALID,0,VALID,93.852,VALID,0,VALID,23.6622,VALID,55,VALID,1.00547,
2009-11-13, 02:39:05,VALID,997.95,VALID,0,VALID,93.8367,VALID,0,VALID,23.6622,VALID,68,VALID,0.761328,
2009-11-13, 02:40:05,VALID,997.912,VALID,0,VALID,93.852,VALID,0,VALID,23.6427,VALID,77,VALID,0.441406,
2009-11-13, 02:41:05,VALID,997.948,VALID,0,VALID,93.852,VALID,0,VALID,23.6214,VALID,134,VALID,0.884766,
2009-11-13, 02:42:05,VALID,997.927,VALID,0,VALID,93.8825,VALID,0,VALID,23.6622,VALID,149,VALID,1.27227,
2009-11-13, 02:43:05,VALID,997.921,VALID,0,VALID,93.9206,VALID,0,VALID,23.6604,VALID,157,VALID,1.36992,
2009-11-13, 02:44:05,VALID,997.891,VALID,0,VALID,93.9054,VALID,0.112286,VALID,23.6799,VALID,159,VALID,0.940234,
2009-11-13, 02:45:05,VALID,997.905,VALID,0,VALID,93.9054,VALID,0,VALID,23.7225,VALID,163,VALID,0.834766,
2009-11-13, 02:46:05,VALID,997.898,VALID,0,VALID,93.8825,VALID,0,VALID,23.742,VALID,163,VALID,0.517578,
2009-11-13, 02:47:05,VALID,997.878,VALID,0,VALID,93.8825,VALID,0,VALID,23.7207,VALID,97,VALID,0.751562,
2009-11-13, 02:48:05,VALID,997.864,VALID,0,VALID,93.9054,VALID,0,VALID,23.742,VALID,67,VALID,1.28789,
2009-11-13, 02:49:05,VALID,997.852,VALID,0,VALID,93.852,VALID,0,VALID,23.7225,VALID,46,VALID,1.50742,
2009-11-13, 02:50:05,VALID,997.835,VALID,0,VALID,93.8367,VALID,0,VALID,23.703,VALID,38,VALID,1.4375,
2009-11-13, 02:51:05,VALID,997.849,VALID,0,VALID,93.8596,VALID,0,VALID,23.6835,VALID,32,VALID,1.08516,
2009-11-13, 02:52:05,VALID,997.882,VALID,0,VALID,93.852,VALID,0,VALID,23.6835,VALID,32,VALID,0.120312,
2009-11-13, 02:53:05,VALID,997.887,VALID,0,VALID,93.8748,VALID,0,VALID,23.6622,VALID,225,VALID,1.05703,
2009-11-13, 02:54:05,VALID,997.912,VALID,0,VALID,93.8977,VALID,0,VALID,23.7012,VALID,223,VALID,1.19766,
2009-11-13, 02:55:05,VALID,997.889,VALID,0,VALID,93.8977,VALID,0,VALID,23.742,VALID,228,VALID,1.07969,
2009-11-13, 02:56:05,VALID,997.867,VALID,0,VALID,93.8825,VALID,0,VALID,23.7207,VALID,240,VALID,0.553906,
2009-11-13, 02:57:05,VALID,997.906,VALID,0,VALID,93.8748,VALID,0,VALID,23.7207,VALID,241,VALID,0.149219,
2009-11-13, 02:58:05,VALID,997.901,VALID,0,VALID,93.8672,VALID,0,VALID,23.7012,VALID,321,VALID,0.684766,
2009-11-13, 02:59:05,VALID,997.902,VALID,0,VALID,93.8367,VALID,0,VALID,23.6817,VALID,354,VALID,1.09375,
2009-11-13, 03:00:05,VALID,997.912,VALID,0,VALID,93.852,VALID,0,VALID,23.6817,VALID,353,VALID,1.13672,
2009-11-13, 03:01:05,VALID,997.909,VALID,0,VALID,93.8291,VALID,0,VALID,23.6817,VALID,355,VALID,1.18242,
2009-11-13, 03:02:05,VALID,997.893,VALID,0,VALID,93.8138,VALID,0,VALID,23.6622,VALID,360,VALID,0.706641,
2009-11-13, 03:03:05,VALID,997.894,VALID,0,VALID,93.8214,VALID,0,VALID,23.6409,VALID,360,VALID,0.210156,
2009-11-13, 03:04:05,VALID,997.898,VALID,0,VALID,93.8291,VALID,0,VALID,23.6409,VALID,360,VALID,0,
2009-11-13, 03:05:05,VALID,997.905,VALID,0,VALID,93.8291,VALID,0,VALID,23.6409,VALID,359,VALID,0,
2009-11-13, 03:06:05,VALID,997.901,VALID,0,VALID,93.8291,VALID,0.112286,VALID,23.6409,VALID,359,VALID,0,
2009-11-13, 03:07:05,VALID,997.89,VALID,0,VALID,93.8367,VALID,0,VALID,23.6622,VALID,359,VALID,0,
2009-11-13, 03:08:05,VALID,997.901,VALID,0,VALID,93.8443,VALID,0,VALID,23.6214,VALID,359,VALID,0.665625,
2009-11-13, 03:09:05,VALID,997.942,VALID,0,VALID,93.8291,VALID,0,VALID,23.6214,VALID,359,VALID,0.617969,
2009-11-13, 03:10:05,VALID,997.948,VALID,0,VALID,93.8291,VALID,0,VALID,23.6427,VALID,359,VALID,0.417188,
2009-11-13, 03:11:05,VALID,997.988,VALID,0,VALID,93.8367,VALID,0,VALID,23.6019,VALID,359,VALID,0.585547,
2009-11-13, 03:12:05,VALID,998.009,VALID,0,VALID,93.8367,VALID,0,VALID,23.6232,VALID,11,VALID,0.651172,
2009-11-13, 03:13:05,VALID,998.027,VALID,0,VALID,93.8443,VALID,0,VALID,23.5823,VALID,12,VALID,0.299609,
2009-11-13, 03:14:05,VALID,998.008,VALID,0,VALID,93.8367,VALID,0,VALID,23.5628,VALID,12,VALID,0,
2009-11-13, 03:15:05,VALID,998.037,VALID,0,VALID,93.8291,VALID,0,VALID,23.5859,VALID,12,VALID,0,
2009-11-13, 03:16:05,VALID,998.035,VALID,0,VALID,93.8596,VALID,0,VALID,23.5646,VALID,12,VALID,0,
2009-11-13, 03:17:05,VALID,998.055,VALID,0,VALID,93.8672,VALID,0,VALID,23.5841,VALID,12,VALID,0,
2009-11-13, 03:18:05,VALID,998.047,VALID,0,VALID,93.8748,VALID,0,VALID,23.5646,VALID,12,VALID,0,
2009-11-13, 03:19:05,VALID,998.051,VALID,0,VALID,93.8596,VALID,0,VALID,23.5646,VALID,13,VALID,0.0613281,
2009-11-13, 03:20:05,VALID,998.025,VALID,0,VALID,93.8748,VALID,0,VALID,23.5841,VALID,182,VALID,0.721484,
2009-11-13, 03:21:05,VALID,998.019,VALID,0,VALID,93.8901,VALID,0,VALID,23.625,VALID,182,VALID,0.392969,
2009-11-13, 03:22:05,VALID,998.013,VALID,0,VALID,93.913,VALID,0,VALID,23.6232,VALID,182,VALID,0.239453,
2009-11-13, 03:23:05,VALID,997.995,VALID,0,VALID,93.8977,VALID,0,VALID,23.6036,VALID,183,VALID,0.253125,
2009-11-13, 03:24:05,VALID,998.004,VALID,0,VALID,93.8901,VALID,0,VALID,23.6036,VALID,183,VALID,0.311719,
2009-11-13, 03:25:05,VALID,998.032,VALID,0,VALID,93.9054,VALID,0,VALID,23.6036,VALID,209,VALID,0.554297,
2009-11-13, 03:26:05,VALID,998.019,VALID,0,VALID,93.8977,VALID,0,VALID,23.6036,VALID,235,VALID,0.846484,
2009-11-13, 03:27:05,VALID,997.972,VALID,0,VALID,93.8977,VALID,0,VALID,23.625,VALID,232,VALID,0.679297,
2009-11-13, 03:28:05,VALID,997.928,VALID,0,VALID,93.8977,VALID,0,VALID,23.6036,VALID,246,VALID,0.821484,
2009-11-13, 03:29:05,VALID,997.906,VALID,0,VALID,93.9054,VALID,0,VALID,23.6445,VALID,250,VALID,0.909766,
2009-11-13, 03:30:05,VALID,997.928,VALID,0,VALID,93.913,VALID,0,VALID,23.6232,VALID,263,VALID,0.659766,
2009-11-13, 03:31:05,VALID,997.937,VALID,0,VALID,93.9206,VALID,0,VALID,23.6445,VALID,263,VALID,0.559375,
2009-11-13, 03:32:05,VALID,997.931,VALID,0,VALID,93.913,VALID,0,VALID,23.6427,VALID,265,VALID,0.642969,
2009-11-13, 03:33:05,VALID,997.962,VALID,0,VALID,93.8977,VALID,0,VALID,23.6445,VALID,265,VALID,0.435156,
2009-11-13, 03:34:05,VALID,997.95,VALID,0,VALID,93.913,VALID,0,VALID,23.625,VALID,281,VALID,0.655859,
2009-11-13, 03:35:05,VALID,997.933,VALID,0,VALID,93.8825,VALID,0,VALID,23.6036,VALID,281,VALID,0.251172,
2009-11-13, 03:36:05,VALID,997.928,VALID,0,VALID,93.8901,VALID,0,VALID,23.6036,VALID,281,VALID,0.154687,
2009-11-13, 03:37:05,VALID,997.958,VALID,0,VALID,93.8901,VALID,0,VALID,23.6036,VALID,283,VALID,0.00585938,
2009-11-13, 03:38:05,VALID,997.985,VALID,0,VALID,93.9054,VALID,0,VALID,23.5859,VALID,283,VALID,0,
2009-11-13, 03:39:05,VALID,997.97,VALID,0,VALID,93.8901,VALID,0,VALID,23.5841,VALID,283,VALID,0,
2009-11-13, 03:40:05,VALID,998.006,VALID,0,VALID,93.9054,VALID,0,VALID,23.5841,VALID,343,VALID,0,
2009-11-13, 03:41:05,VALID,998.031,VALID,0,VALID,93.8901,VALID,0,VALID,23.5646,VALID,343,VALID,0,
2009-11-13, 03:42:05,VALID,998.018,VALID,0,VALID,93.913,VALID,0,VALID,23.5451,VALID,343,VALID,0,
2009-11-13, 03:43:05,VALID,998.039,VALID,0,VALID,93.9054,VALID,0,VALID,23.5256,VALID,343,VALID,0,
2009-11-13, 03:44:05,VALID,998.094,VALID,0,VALID,93.9054,VALID,0,VALID,23.5256,VALID,23,VALID,0.721094,
2009-11-13, 03:45:05,VALID,998.093,VALID,0,VALID,93.913,VALID,0,VALID,23.5256,VALID,36,VALID,0.829687,
2009-11-13, 03:46:05,VALID,998.138,VALID,0,VALID,93.9283,VALID,0,VALID,23.5061,VALID,36,VALID,1.06094,